TimeMST,TemperatureF,Dew PointF,Humidity,Sea Level PressureIn,VisibilityMPH,Wind Direction,Wind SpeedMPH,Gust SpeedMPH,PrecipitationIn,Events,Conditions,WindDirDegrees,DateUTC
12:54 AM,24.1,19.9,84,30.27,10.0,ENE,3.5,-,N/A,,Clear,60,2012-12-04 07:54:00
1:54 AM,21.9,18.0,85,30.27,10.0,Calm,Calm,-,N/A,,Clear,0,2012-12-04 08:54:00
2:54 AM,21.9,17.1,82,30.30,10.0,NE,3.5,-,N/A,,Clear,50,2012-12-04 09:54:00
3:54 AM,21.9,18.0,85,30.31,10.0,Calm,Calm,-,N/A,,Clear,0,2012-12-04 10:54:00
4:54 AM,21.9,18.0,85,30.32,10.0,Calm,Calm,-,N/A,,Clear,0,2012-12-04 11:54:00
5:54 AM,21.9,17.1,82,30.41,10.0,Calm,Calm,-,N/A,,Clear,0,2012-12-04 12:54:00
6:54 AM,26.1,21.0,81,30.44,10.0,Calm,Calm,-,N/A,,Clear,0,2012-12-04 13:54:00
7:54 AM,28.0,23.0,81,30.45,10.0,Calm,Calm,-,N/A,,Partly Cloudy,0,2012-12-04 14:54:00
8:54 AM,39.9,28.9,65,30.40,10.0,Calm,Calm,-,N/A,,Clear,0,2012-12-04 15:54:00
9:54 AM,51.1,30.0,44,30.37,10.0,Variable,3.5,-,N/A,,Clear,0,2012-12-04 16:54:00
11:54 AM,57.0,26.1,30,30.35,10.0,Calm,Calm,-,N/A,,Clear,0,2012-12-04 18:54:00
12:54 PM,59.0,24.1,26,30.32,10.0,Variable,3.5,-,N/A,,Clear,0,2012-12-04 19:54:00
1:54 PM,59.0,28.0,31,30.31,10.0,Variable,4.6,-,N/A,,Clear,0,2012-12-04 20:54:00
2:54 PM,59.0,26.1,28,30.28,10.0,Variable,3.5,-,N/A,,Clear,0,2012-12-04 21:54:00
3:54 PM,59.0,26.1,28,30.30,10.0,NW,3.5,-,N/A,,Clear,310,2012-12-04 22:54:00
4:54 PM,50.0,26.1,39,30.36,10.0,Calm,Calm,-,N/A,,Clear,0,2012-12-04 23:54:00
5:54 PM,44.1,24.1,45,30.38,10.0,ENE,4.6,-,N/A,,Clear,60,2012-12-05 00:54:00
6:54 PM,41.0,24.1,51,30.37,10.0,Calm,Calm,-,N/A,,Clear,0,2012-12-05 01:54:00
7:54 PM,37.0,21.0,52,30.36,10.0,Calm,Calm,-,N/A,,Clear,0,2012-12-05 02:54:00
8:54 PM,34.0,21.0,59,30.33,10.0,Calm,Calm,-,N/A,,Clear,0,2012-12-05 03:54:00
9:54 PM,30.9,19.0,61,30.30,10.0,Calm,Calm,-,N/A,,Clear,0,2012-12-05 04:54:00
10:54 PM,28.9,17.1,61,30.30,10.0,Calm,Calm,-,N/A,,Clear,0,2012-12-05 05:54:00
11:54 PM,28.0,17.1,63,30.28,10.0,Calm,Calm,-,N/A,,Clear,0,2012-12-05 06:54:00